Year,Month,Day,Hour,Minute,Value (Times are PST for temperature in C)
2007,07,09,00,00,14.80
2007,07,09,00,01,14.80
2007,07,09,00,02,14.80
2007,07,09,00,03,14.80
2007,07,09,00,04,14.80
2007,07,09,00,05,14.80
2007,07,09,00,06,14.80
2007,07,09,00,07,14.80
2007,07,09,00,08,14.80
2007,07,09,00,09,14.80
2007,07,09,00,10,14.80
2007,07,09,00,11,14.80
2007,07,09,00,12,14.70
2007,07,09,00,13,14.70
2007,07,09,00,14,14.70
2007,07,09,00,15,14.70
2007,07,09,00,16,14.70
2007,07,09,00,17,14.60
2007,07,09,00,18,14.60
2007,07,09,00,19,14.60
2007,07,09,00,20,14.60
2007,07,09,00,21,14.60
2007,07,09,00,22,14.60
2007,07,09,00,23,14.50
2007,07,09,00,24,14.50
2007,07,09,00,25,14.50
2007,07,09,00,26,14.40
2007,07,09,00,27,14.40
2007,07,09,00,28,14.40
2007,07,09,00,29,14.40
2007,07,09,00,30,14.30
2007,07,09,00,31,14.30
2007,07,09,00,32,14.30
2007,07,09,00,33,14.30
2007,07,09,00,34,14.30
2007,07,09,00,35,14.30
2007,07,09,00,36,14.20
2007,07,09,00,37,14.20
2007,07,09,00,38,14.20
2007,07,09,00,39,14.20
2007,07,09,00,40,14.20
2007,07,09,00,41,14.20
2007,07,09,00,42,14.20
2007,07,09,00,43,14.20
2007,07,09,00,44,14.20
2007,07,09,00,45,14.20
2007,07,09,00,46,14.20
2007,07,09,00,47,14.20
2007,07,09,00,48,14.20
2007,07,09,00,49,14.20
2007,07,09,00,50,14.10
2007,07,09,00,51,14.10
2007,07,09,00,52,14.10
2007,07,09,00,53,14.10
2007,07,09,00,54,14.00
2007,07,09,00,55,14.00
2007,07,09,00,56,14.00
2007,07,09,00,57,14.00
2007,07,09,00,58,14.00
2007,07,09,00,59,14.00
2007,07,09,01,00,13.90
2007,07,09,01,01,13.90
2007,07,09,01,02,13.90
2007,07,09,01,03,13.90
2007,07,09,01,04,13.90
2007,07,09,01,05,13.90
2007,07,09,01,06,13.90
2007,07,09,01,07,13.80
2007,07,09,01,08,13.80
2007,07,09,01,09,13.80
2007,07,09,01,10,13.80
2007,07,09,01,11,13.70
2007,07,09,01,12,13.70
2007,07,09,01,13,13.70
2007,07,09,01,14,13.70
2007,07,09,01,15,13.70
2007,07,09,01,16,13.70
2007,07,09,01,17,13.70
2007,07,09,01,18,13.70
2007,07,09,01,19,13.60
2007,07,09,01,20,13.60
2007,07,09,01,21,13.60
2007,07,09,01,22,13.60
2007,07,09,01,23,13.60
2007,07,09,01,24,13.60
2007,07,09,01,25,13.60
2007,07,09,01,26,13.60
2007,07,09,01,27,13.60
2007,07,09,01,28,13.60
2007,07,09,01,29,13.60
2007,07,09,01,30,13.60
2007,07,09,01,31,13.60
2007,07,09,01,32,13.60
2007,07,09,01,33,13.60
2007,07,09,01,34,13.60
2007,07,09,01,35,13.60
2007,07,09,01,36,13.50
2007,07,09,01,37,13.50
2007,07,09,01,38,13.50
2007,07,09,01,39,13.50
2007,07,09,01,40,13.50
2007,07,09,01,41,13.50
2007,07,09,01,42,13.50
2007,07,09,01,43,13.50
2007,07,09,01,44,13.50
2007,07,09,01,45,13.50
2007,07,09,01,46,13.50
2007,07,09,01,47,13.50
2007,07,09,01,48,13.50
2007,07,09,01,49,13.50
2007,07,09,01,50,13.40
2007,07,09,01,51,13.40
2007,07,09,01,52,13.40
2007,07,09,01,53,13.30
2007,07,09,01,54,13.30
2007,07,09,01,55,13.30
2007,07,09,01,56,13.30
2007,07,09,01,57,13.30
2007,07,09,01,58,13.30
2007,07,09,01,59,13.20
2007,07,09,02,00,13.20
2007,07,09,02,01,13.20
2007,07,09,02,02,13.10
2007,07,09,02,03,13.10
2007,07,09,02,04,13.10
2007,07,09,02,05,13.10
2007,07,09,02,06,13.00
2007,07,09,02,07,13.00
2007,07,09,02,08,13.00
2007,07,09,02,09,13.00
2007,07,09,02,10,12.90
2007,07,09,02,11,12.90
2007,07,09,02,12,12.90
2007,07,09,02,13,12.90
2007,07,09,02,14,12.90
2007,07,09,02,15,12.80
2007,07,09,02,16,12.80
2007,07,09,02,17,12.80
2007,07,09,02,18,12.80
2007,07,09,02,19,12.80
2007,07,09,02,20,12.80
2007,07,09,02,21,12.80
2007,07,09,02,22,12.80
2007,07,09,02,23,12.80
2007,07,09,02,24,12.80
2007,07,09,02,25,12.80
2007,07,09,02,26,12.80
2007,07,09,02,27,12.80
2007,07,09,02,28,12.80
2007,07,09,02,29,12.80
2007,07,09,02,30,12.80
2007,07,09,02,31,12.80
2007,07,09,02,32,12.80
2007,07,09,02,33,12.80
2007,07,09,02,34,12.70
2007,07,09,02,35,12.70
2007,07,09,02,36,12.70
2007,07,09,02,37,12.80
2007,07,09,02,38,12.80
2007,07,09,02,39,12.80
2007,07,09,02,40,12.70
2007,07,09,02,41,12.70
2007,07,09,02,42,12.70
2007,07,09,02,43,12.70
2007,07,09,02,44,12.70
2007,07,09,02,45,12.70
2007,07,09,02,46,12.70
2007,07,09,02,47,12.70
2007,07,09,02,48,12.60
2007,07,09,02,49,12.60
2007,07,09,02,50,12.60
2007,07,09,02,51,12.60
2007,07,09,02,52,12.60
2007,07,09,02,53,12.60
2007,07,09,02,54,12.60
2007,07,09,02,55,12.60
2007,07,09,02,56,12.70
2007,07,09,02,57,12.70
2007,07,09,02,58,12.70
2007,07,09,02,59,12.70
2007,07,09,03,00,12.70
2007,07,09,03,01,12.70
2007,07,09,03,02,12.80
2007,07,09,03,03,12.70
2007,07,09,03,04,12.70
2007,07,09,03,05,12.70
2007,07,09,03,06,12.70
2007,07,09,03,07,12.60
2007,07,09,03,08,12.60
2007,07,09,03,09,12.60
2007,07,09,03,10,12.50
2007,07,09,03,11,12.50
2007,07,09,03,12,12.50
2007,07,09,03,13,12.50
2007,07,09,03,14,12.40
2007,07,09,03,15,12.40
2007,07,09,03,16,12.40
2007,07,09,03,17,12.40
2007,07,09,03,18,12.40
2007,07,09,03,19,12.40
2007,07,09,03,20,12.30
2007,07,09,03,21,12.30
2007,07,09,03,22,12.30
2007,07,09,03,23,12.30
2007,07,09,03,24,12.30
2007,07,09,03,25,12.30
2007,07,09,03,26,12.30
2007,07,09,03,27,12.30
2007,07,09,03,28,12.30
2007,07,09,03,29,12.30
2007,07,09,03,30,12.30
2007,07,09,03,31,12.30
2007,07,09,03,32,12.30
2007,07,09,03,33,12.30
2007,07,09,03,34,12.30
2007,07,09,03,35,12.30
2007,07,09,03,36,12.30
2007,07,09,03,37,12.20
2007,07,09,03,38,12.20
2007,07,09,03,39,12.20
2007,07,09,03,40,12.20
2007,07,09,03,41,12.20
2007,07,09,03,42,12.20
2007,07,09,03,43,12.20
2007,07,09,03,44,12.20
2007,07,09,03,45,12.10
2007,07,09,03,46,12.10
2007,07,09,03,47,12.10
2007,07,09,03,48,12.10
2007,07,09,03,49,12.10
2007,07,09,03,50,12.10
2007,07,09,03,51,12.10
2007,07,09,03,52,12.10
2007,07,09,03,53,12.00
2007,07,09,03,54,12.00
2007,07,09,03,55,12.00
2007,07,09,03,56,12.00
2007,07,09,03,57,12.00
2007,07,09,03,58,11.90
2007,07,09,03,59,11.90
2007,07,09,04,00,11.90
2007,07,09,04,01,11.90
2007,07,09,04,02,11.90
2007,07,09,04,03,11.90
2007,07,09,04,04,11.90
2007,07,09,04,05,11.80
2007,07,09,04,06,11.80
2007,07,09,04,07,11.80
2007,07,09,04,08,11.80
2007,07,09,04,09,11.80
2007,07,09,04,10,11.80
2007,07,09,04,11,11.80
2007,07,09,04,12,11.80
2007,07,09,04,13,11.80
2007,07,09,04,14,11.70
2007,07,09,04,15,11.70
2007,07,09,04,16,11.80
2007,07,09,04,17,11.80
2007,07,09,04,18,11.70
2007,07,09,04,19,11.70
2007,07,09,04,20,11.70
2007,07,09,04,21,11.70
2007,07,09,04,22,11.70
2007,07,09,04,23,11.70
2007,07,09,04,24,11.70
2007,07,09,04,25,11.70
2007,07,09,04,26,11.70
2007,07,09,04,27,11.70
2007,07,09,04,28,11.60
2007,07,09,04,29,11.60
2007,07,09,04,30,11.60
2007,07,09,04,31,11.60
2007,07,09,04,32,11.60
2007,07,09,04,33,11.60
2007,07,09,04,34,11.60
2007,07,09,04,35,11.60
2007,07,09,04,36,11.60
2007,07,09,04,37,11.60
2007,07,09,04,38,11.60
2007,07,09,04,39,11.60
2007,07,09,04,40,11.60
2007,07,09,04,41,11.60
2007,07,09,04,42,11.50
2007,07,09,04,43,11.40
2007,07,09,04,44,11.40
2007,07,09,04,45,11.40
2007,07,09,04,46,11.40
2007,07,09,04,47,11.40
2007,07,09,04,48,11.40
2007,07,09,04,49,11.40
2007,07,09,04,50,11.40
2007,07,09,04,51,11.40
2007,07,09,04,52,11.40
2007,07,09,04,53,11.40
2007,07,09,04,54,11.40
2007,07,09,04,55,11.40
2007,07,09,04,56,11.40
2007,07,09,04,57,11.40
2007,07,09,04,58,11.40
2007,07,09,04,59,11.40
2007,07,09,05,00,11.40
2007,07,09,05,01,11.40
2007,07,09,05,02,11.40
2007,07,09,05,03,11.40
2007,07,09,05,04,11.40
2007,07,09,05,05,11.40
2007,07,09,05,06,11.40
2007,07,09,05,07,11.40
2007,07,09,05,08,11.40
2007,07,09,05,09,11.40
2007,07,09,05,10,11.40
2007,07,09,05,11,11.30
2007,07,09,05,12,11.30
2007,07,09,05,13,11.30
2007,07,09,05,14,11.30
2007,07,09,05,15,11.30
2007,07,09,05,16,11.30
2007,07,09,05,17,11.30
2007,07,09,05,18,11.30
2007,07,09,05,19,11.30
2007,07,09,05,20,11.20
2007,07,09,05,21,11.20
2007,07,09,05,22,11.30
2007,07,09,05,23,11.30
2007,07,09,05,24,11.30
2007,07,09,05,25,11.30
2007,07,09,05,26,11.30
2007,07,09,05,27,11.30
2007,07,09,05,28,11.20
2007,07,09,05,29,11.20
2007,07,09,05,30,11.20
2007,07,09,05,31,11.20
2007,07,09,05,32,11.20
2007,07,09,05,33,11.20
2007,07,09,05,34,11.30
2007,07,09,05,35,11.30
2007,07,09,05,36,11.30
2007,07,09,05,37,11.30
2007,07,09,05,38,11.20
2007,07,09,05,39,11.20
2007,07,09,05,40,11.20
2007,07,09,05,41,11.20
2007,07,09,05,42,11.20
2007,07,09,05,43,11.20
2007,07,09,05,44,11.20
2007,07,09,05,45,11.20
2007,07,09,05,46,11.20
2007,07,09,05,47,11.20
2007,07,09,05,48,11.20
2007,07,09,05,49,11.20
2007,07,09,05,50,11.20
2007,07,09,05,51,11.20
2007,07,09,05,52,11.20
2007,07,09,05,53,11.20
2007,07,09,05,54,11.10
2007,07,09,05,55,11.10
2007,07,09,05,56,11.10
2007,07,09,05,57,11.10
2007,07,09,05,58,11.10
2007,07,09,05,59,11.10
2007,07,09,06,00,11.10
2007,07,09,06,01,11.10
2007,07,09,06,02,11.10
2007,07,09,06,03,11.10
2007,07,09,06,04,11.10
2007,07,09,06,05,11.20
2007,07,09,06,06,11.20
2007,07,09,06,07,11.20
2007,07,09,06,08,11.30
2007,07,09,06,09,11.30
2007,07,09,06,10,11.40
2007,07,09,06,11,11.40
2007,07,09,06,12,11.50
2007,07,09,06,13,11.60
2007,07,09,06,14,11.60
2007,07,09,06,15,11.60
2007,07,09,06,16,11.60
2007,07,09,06,17,11.60
2007,07,09,06,18,11.60
2007,07,09,06,19,11.70
2007,07,09,06,20,11.70
2007,07,09,06,21,11.70
2007,07,09,06,22,11.80
2007,07,09,06,23,11.80
2007,07,09,06,24,11.80
2007,07,09,06,25,11.90
2007,07,09,06,26,11.90
2007,07,09,06,27,12.00
2007,07,09,06,28,12.10
2007,07,09,06,29,12.20
2007,07,09,06,30,12.20
2007,07,09,06,31,12.30
2007,07,09,06,32,12.30
2007,07,09,06,33,12.30
2007,07,09,06,34,12.40
2007,07,09,06,35,12.50
2007,07,09,06,36,12.50
2007,07,09,06,37,12.60
2007,07,09,06,38,12.70
2007,07,09,06,39,12.70
2007,07,09,06,40,12.80
2007,07,09,06,41,12.80
2007,07,09,06,42,12.80
2007,07,09,06,43,12.80
2007,07,09,06,44,12.80
2007,07,09,06,45,12.80
2007,07,09,06,46,12.80
2007,07,09,06,47,12.80
2007,07,09,06,48,12.80
2007,07,09,06,49,12.90
2007,07,09,06,50,13.00
2007,07,09,06,51,13.10
2007,07,09,06,52,13.10
2007,07,09,06,53,13.20
2007,07,09,06,54,13.30
2007,07,09,06,55,13.30
2007,07,09,06,56,13.40
2007,07,09,06,57,13.50
2007,07,09,06,58,13.60
2007,07,09,06,59,13.70
2007,07,09,07,00,13.70
2007,07,09,07,01,13.70
2007,07,09,07,02,13.90
2007,07,09,07,03,14.00
2007,07,09,07,04,14.10
2007,07,09,07,05,14.30
2007,07,09,07,06,14.50
2007,07,09,07,07,14.60
2007,07,09,07,08,14.70
2007,07,09,07,09,14.80
2007,07,09,07,10,14.90
2007,07,09,07,11,15.00
2007,07,09,07,12,15.00
2007,07,09,07,13,15.10
2007,07,09,07,14,15.20
2007,07,09,07,15,15.20
2007,07,09,07,16,15.30
2007,07,09,07,17,15.40
2007,07,09,07,18,15.60
2007,07,09,07,19,15.70
2007,07,09,07,20,15.80
2007,07,09,07,21,15.90
2007,07,09,07,22,16.10
2007,07,09,07,23,16.10
2007,07,09,07,24,16.20
2007,07,09,07,25,16.30
2007,07,09,07,26,16.40
2007,07,09,07,27,16.50
2007,07,09,07,28,16.70
2007,07,09,07,29,16.70
2007,07,09,07,30,16.80
2007,07,09,07,31,16.90
2007,07,09,07,32,17.00
2007,07,09,07,33,17.10
2007,07,09,07,34,17.10
2007,07,09,07,35,17.10
2007,07,09,07,36,17.20
2007,07,09,07,37,17.20
2007,07,09,07,38,17.30
2007,07,09,07,39,17.30
2007,07,09,07,40,17.40
2007,07,09,07,41,17.50
2007,07,09,07,42,17.50
2007,07,09,07,43,17.60
2007,07,09,07,44,17.60
2007,07,09,07,45,17.70
2007,07,09,07,46,17.70
2007,07,09,07,47,17.80
2007,07,09,07,48,17.80
2007,07,09,07,49,17.80
2007,07,09,07,50,17.90
2007,07,09,07,51,17.90
2007,07,09,07,52,17.90
2007,07,09,07,53,17.90
2007,07,09,07,54,17.90
2007,07,09,07,55,17.90
2007,07,09,07,56,17.90
2007,07,09,07,57,18.00
2007,07,09,07,58,18.10
2007,07,09,07,59,18.10
2007,07,09,08,00,18.20
2007,07,09,08,01,18.30
2007,07,09,08,02,18.30
2007,07,09,08,03,18.30
2007,07,09,08,04,18.30
2007,07,09,08,05,18.30
2007,07,09,08,06,18.30
2007,07,09,08,07,18.30
2007,07,09,08,08,18.40
2007,07,09,08,09,18.50
2007,07,09,08,10,18.50
2007,07,09,08,11,18.60
2007,07,09,08,12,18.70
2007,07,09,08,13,18.80
2007,07,09,08,14,18.90
2007,07,09,08,15,19.00
2007,07,09,08,16,19.10
2007,07,09,08,17,19.10
2007,07,09,08,18,19.10
2007,07,09,08,19,19.10
2007,07,09,08,20,19.10
2007,07,09,08,21,19.10
2007,07,09,08,22,19.10
2007,07,09,08,23,19.20
2007,07,09,08,24,19.20
2007,07,09,08,25,19.20
2007,07,09,08,26,19.20
2007,07,09,08,27,19.10
2007,07,09,08,28,19.00
2007,07,09,08,29,18.90
2007,07,09,08,30,18.90
2007,07,09,08,31,18.90
2007,07,09,08,32,18.90
2007,07,09,08,33,18.90
2007,07,09,08,34,18.90
2007,07,09,08,35,18.90
2007,07,09,08,36,18.90
2007,07,09,08,37,19.00
2007,07,09,08,38,19.10
2007,07,09,08,39,19.10
2007,07,09,08,40,19.10
2007,07,09,08,41,19.20
2007,07,09,08,42,19.20
2007,07,09,08,43,19.40
2007,07,09,08,44,19.50
2007,07,09,08,45,19.50
2007,07,09,08,46,19.50
2007,07,09,08,47,19.50
2007,07,09,08,48,19.50
2007,07,09,08,49,19.60
2007,07,09,08,50,19.70
2007,07,09,08,51,19.70
2007,07,09,08,52,19.80
2007,07,09,08,53,19.80
2007,07,09,08,54,19.80
2007,07,09,08,55,19.80
2007,07,09,08,56,19.80
2007,07,09,08,57,19.80
2007,07,09,08,58,19.80
2007,07,09,08,59,19.80
2007,07,09,09,00,19.90
2007,07,09,09,01,19.90
2007,07,09,09,02,20.00
2007,07,09,09,03,20.10
2007,07,09,09,04,20.10
2007,07,09,09,05,20.00
2007,07,09,09,06,19.90
2007,07,09,09,07,19.90
2007,07,09,09,08,19.90
2007,07,09,09,09,19.90
2007,07,09,09,10,19.80
2007,07,09,09,11,19.80
2007,07,09,09,12,19.80
2007,07,09,09,13,19.70
2007,07,09,09,14,19.70
2007,07,09,09,15,19.80
2007,07,09,09,16,19.90
2007,07,09,09,17,19.90
2007,07,09,09,18,19.90
2007,07,09,09,19,19.90
2007,07,09,09,20,20.00
2007,07,09,09,21,20.20
2007,07,09,09,22,20.20
2007,07,09,09,23,20.30
2007,07,09,09,24,20.40
2007,07,09,09,25,20.50
2007,07,09,09,26,20.60
2007,07,09,09,27,20.70
2007,07,09,09,28,20.80
2007,07,09,09,29,20.80
2007,07,09,09,30,20.70
2007,07,09,09,31,20.70
2007,07,09,09,32,20.60
2007,07,09,09,33,20.60
2007,07,09,09,34,20.40
2007,07,09,09,35,20.40
2007,07,09,09,36,20.40
2007,07,09,09,37,20.50
2007,07,09,09,38,20.40
2007,07,09,09,39,20.40
2007,07,09,09,40,20.40
2007,07,09,09,41,20.40
2007,07,09,09,42,20.40
2007,07,09,09,43,20.40
2007,07,09,09,44,20.30
2007,07,09,09,45,20.30
2007,07,09,09,46,20.40
2007,07,09,09,47,20.50
2007,07,09,09,48,20.50
2007,07,09,09,49,20.50
2007,07,09,09,50,20.30
2007,07,09,09,51,20.20
2007,07,09,09,52,20.20
2007,07,09,09,53,20.20
2007,07,09,09,54,20.20
2007,07,09,09,55,20.30
2007,07,09,09,56,20.40
2007,07,09,09,57,20.40
2007,07,09,09,58,20.50
2007,07,09,09,59,20.60
2007,07,09,10,00,20.60
2007,07,09,10,01,20.60
2007,07,09,10,02,20.50
2007,07,09,10,03,20.40
2007,07,09,10,04,20.30
2007,07,09,10,05,20.30
2007,07,09,10,06,20.40
2007,07,09,10,07,20.50
2007,07,09,10,08,20.60
2007,07,09,10,09,20.60
2007,07,09,10,10,20.60
2007,07,09,10,11,20.60
2007,07,09,10,12,20.60
2007,07,09,10,13,20.60
2007,07,09,10,14,20.60
2007,07,09,10,15,20.60
2007,07,09,10,16,20.80
2007,07,09,10,17,20.90
2007,07,09,10,18,20.90
2007,07,09,10,19,21.00
2007,07,09,10,20,21.00
2007,07,09,10,21,21.00
2007,07,09,10,22,21.00
2007,07,09,10,23,20.90
2007,07,09,10,24,20.80
2007,07,09,10,25,20.80
2007,07,09,10,26,20.70
2007,07,09,10,27,20.60
2007,07,09,10,28,20.50
2007,07,09,10,29,20.40
2007,07,09,10,30,20.40
2007,07,09,10,31,20.50
2007,07,09,10,32,20.60
2007,07,09,10,33,20.70
2007,07,09,10,34,20.80
2007,07,09,10,35,20.80
2007,07,09,10,36,21.00
2007,07,09,10,37,21.10
2007,07,09,10,38,21.20
2007,07,09,10,39,21.30
2007,07,09,10,40,21.30
2007,07,09,10,41,21.40
2007,07,09,10,42,21.40
2007,07,09,10,43,21.30
2007,07,09,10,44,21.30
2007,07,09,10,45,21.30
2007,07,09,10,46,21.10
2007,07,09,10,47,21.00
2007,07,09,10,48,20.90
2007,07,09,10,49,20.90
2007,07,09,10,50,20.70
2007,07,09,10,51,20.60
2007,07,09,10,52,20.60
2007,07,09,10,53,20.60
2007,07,09,10,54,20.60
2007,07,09,10,55,20.60
2007,07,09,10,56,20.60
2007,07,09,10,57,20.60
2007,07,09,10,58,20.60
2007,07,09,10,59,20.60
2007,07,09,11,00,20.60
2007,07,09,11,01,20.60
2007,07,09,11,02,20.50
2007,07,09,11,03,20.60
2007,07,09,11,04,20.60
2007,07,09,11,05,20.70
2007,07,09,11,06,20.80
2007,07,09,11,07,20.90
2007,07,09,11,08,20.90
2007,07,09,11,09,20.90
2007,07,09,11,10,20.80
2007,07,09,11,11,20.70
2007,07,09,11,12,20.70
2007,07,09,11,13,20.80
2007,07,09,11,14,20.80
2007,07,09,11,15,20.80
2007,07,09,11,16,20.80
2007,07,09,11,17,20.90
2007,07,09,11,18,20.90
2007,07,09,11,19,20.90
2007,07,09,11,20,20.80
2007,07,09,11,21,20.70
2007,07,09,11,22,20.80
2007,07,09,11,23,20.80
2007,07,09,11,24,20.70
2007,07,09,11,25,20.60
2007,07,09,11,26,20.60
2007,07,09,11,27,20.50
2007,07,09,11,28,20.60
2007,07,09,11,29,20.70
2007,07,09,11,30,20.80
2007,07,09,11,31,20.80
2007,07,09,11,32,20.80
2007,07,09,11,33,20.90
2007,07,09,11,34,21.00
2007,07,09,11,35,21.10
2007,07,09,11,36,21.20
2007,07,09,11,37,21.20
2007,07,09,11,38,21.20
2007,07,09,11,39,21.30
2007,07,09,11,40,21.30
2007,07,09,11,41,21.40
2007,07,09,11,42,21.40
2007,07,09,11,43,21.30
2007,07,09,11,44,21.30
2007,07,09,11,45,21.40
2007,07,09,11,46,21.30
2007,07,09,11,47,21.40
2007,07,09,11,48,21.40
2007,07,09,11,49,21.40
2007,07,09,11,50,21.50
2007,07,09,11,51,21.60
2007,07,09,11,52,21.60
2007,07,09,11,53,21.60
2007,07,09,11,54,21.60
2007,07,09,11,55,21.60
2007,07,09,11,56,21.70
2007,07,09,11,57,21.70
2007,07,09,11,58,21.70
2007,07,09,11,59,21.70
2007,07,09,12,00,21.70
2007,07,09,12,01,21.80
2007,07,09,12,02,21.90
2007,07,09,12,03,21.90
2007,07,09,12,04,22.00
2007,07,09,12,05,22.00
2007,07,09,12,06,22.10
2007,07,09,12,07,22.00
2007,07,09,12,08,21.90
2007,07,09,12,09,21.90
2007,07,09,12,10,22.00
2007,07,09,12,11,22.00
2007,07,09,12,12,22.10
2007,07,09,12,13,22.20
2007,07,09,12,14,22.20
2007,07,09,12,15,22.20
2007,07,09,12,16,22.10
2007,07,09,12,17,22.20
2007,07,09,12,18,22.20
2007,07,09,12,19,22.30
2007,07,09,12,20,22.30
2007,07,09,12,21,22.30
2007,07,09,12,22,22.30
2007,07,09,12,23,22.30
2007,07,09,12,24,22.40
2007,07,09,12,25,22.30
2007,07,09,12,26,22.20
2007,07,09,12,27,22.20
2007,07,09,12,28,22.30
2007,07,09,12,29,22.40
2007,07,09,12,30,22.60
2007,07,09,12,31,22.70
2007,07,09,12,32,22.60
2007,07,09,12,33,22.60
2007,07,09,12,34,22.70
2007,07,09,12,35,22.80
2007,07,09,12,36,22.80
2007,07,09,12,37,22.90
2007,07,09,12,38,23.00
2007,07,09,12,39,23.10
2007,07,09,12,40,23.30
2007,07,09,12,41,23.30
2007,07,09,12,42,23.30
2007,07,09,12,43,23.30
2007,07,09,12,44,23.30
2007,07,09,12,45,23.40
2007,07,09,12,46,23.40
2007,07,09,12,47,23.60
2007,07,09,12,48,23.60
2007,07,09,12,49,23.50
2007,07,09,12,50,23.40
2007,07,09,12,51,23.30
2007,07,09,12,52,23.20
2007,07,09,12,53,23.00
2007,07,09,12,54,22.90
2007,07,09,12,55,22.90
2007,07,09,12,56,22.90
2007,07,09,12,57,22.90
2007,07,09,12,58,22.90
2007,07,09,12,59,22.90
2007,07,09,13,00,22.90
2007,07,09,13,01,23.00
2007,07,09,13,02,23.20
2007,07,09,13,03,23.30
2007,07,09,13,04,23.20
2007,07,09,13,05,23.30
2007,07,09,13,06,23.30
2007,07,09,13,07,23.20
2007,07,09,13,08,23.10
2007,07,09,13,09,23.10
2007,07,09,13,10,23.10
2007,07,09,13,11,23.00
2007,07,09,13,12,23.00
2007,07,09,13,13,23.10
2007,07,09,13,14,23.00
2007,07,09,13,15,22.90
2007,07,09,13,16,22.80
2007,07,09,13,17,22.80
2007,07,09,13,18,22.80
2007,07,09,13,19,22.80
2007,07,09,13,20,22.90
2007,07,09,13,21,23.10
2007,07,09,13,22,23.20
2007,07,09,13,23,23.30
2007,07,09,13,24,23.40
2007,07,09,13,25,23.50
2007,07,09,13,26,23.70
2007,07,09,13,27,23.80
2007,07,09,13,28,23.80
2007,07,09,13,29,23.80
2007,07,09,13,30,23.80
2007,07,09,13,31,23.80
2007,07,09,13,32,23.80
2007,07,09,13,33,23.90
2007,07,09,13,34,23.90
2007,07,09,13,35,24.10
2007,07,09,13,36,24.10
2007,07,09,13,37,24.20
2007,07,09,13,38,24.30
2007,07,09,13,39,24.40
2007,07,09,13,40,24.50
2007,07,09,13,41,24.50
2007,07,09,13,42,24.30
2007,07,09,13,43,24.10
2007,07,09,13,44,23.90
2007,07,09,13,45,23.90
2007,07,09,13,46,23.90
2007,07,09,13,47,24.10
2007,07,09,13,48,24.10
2007,07,09,13,49,24.10
2007,07,09,13,50,24.20
2007,07,09,13,51,24.30
2007,07,09,13,52,24.40
2007,07,09,13,53,24.50
2007,07,09,13,54,24.70
2007,07,09,13,55,24.70
2007,07,09,13,56,24.60
2007,07,09,13,57,24.50
2007,07,09,13,58,24.50
2007,07,09,13,59,24.40
2007,07,09,14,00,24.50
2007,07,09,14,01,24.50
2007,07,09,14,02,24.50
2007,07,09,14,03,24.50
2007,07,09,14,04,24.40
2007,07,09,14,05,24.20
2007,07,09,14,06,24.10
2007,07,09,14,07,24.10
2007,07,09,14,08,24.10
2007,07,09,14,09,24.10
2007,07,09,14,10,24.10
2007,07,09,14,11,24.30
2007,07,09,14,12,24.50
2007,07,09,14,13,24.50
2007,07,09,14,14,24.50
2007,07,09,14,15,24.60
2007,07,09,14,16,24.80
2007,07,09,14,17,24.80
2007,07,09,14,18,24.90
2007,07,09,14,19,24.90
2007,07,09,14,20,24.90
2007,07,09,14,21,24.80
2007,07,09,14,22,24.70
2007,07,09,14,23,24.70
2007,07,09,14,24,24.70
2007,07,09,14,25,24.80
2007,07,09,14,26,24.80
2007,07,09,14,27,24.90
2007,07,09,14,28,24.90
2007,07,09,14,29,25.00
2007,07,09,14,30,25.10
2007,07,09,14,31,25.10
2007,07,09,14,32,25.00
2007,07,09,14,33,24.90
2007,07,09,14,34,24.90
2007,07,09,14,35,24.90
2007,07,09,14,36,24.90
2007,07,09,14,37,24.90
2007,07,09,14,38,25.00
2007,07,09,14,39,25.10
2007,07,09,14,40,25.10
2007,07,09,14,41,25.20
2007,07,09,14,42,25.20
2007,07,09,14,43,25.20
2007,07,09,14,44,25.20
2007,07,09,14,45,25.30
2007,07,09,14,46,25.30
2007,07,09,14,47,25.40
2007,07,09,14,48,25.40
2007,07,09,14,49,25.40
2007,07,09,14,50,25.30
2007,07,09,14,51,25.20
2007,07,09,14,52,25.10
2007,07,09,14,53,25.10
2007,07,09,14,54,25.10
2007,07,09,14,55,25.10
2007,07,09,14,56,25.20
2007,07,09,14,57,25.20
2007,07,09,14,58,25.10
2007,07,09,14,59,25.00
2007,07,09,15,00,25.00
2007,07,09,15,01,24.90
2007,07,09,15,02,25.00
2007,07,09,15,03,25.10
2007,07,09,15,04,25.20
2007,07,09,15,05,25.20
2007,07,09,15,06,25.30
2007,07,09,15,07,25.40
2007,07,09,15,08,25.60
2007,07,09,15,09,25.70
2007,07,09,15,10,25.70
2007,07,09,15,11,25.80
2007,07,09,15,12,25.80
2007,07,09,15,13,25.80
2007,07,09,15,14,25.80
2007,07,09,15,15,25.70
2007,07,09,15,16,25.60
2007,07,09,15,17,25.50
2007,07,09,15,18,25.50
2007,07,09,15,19,25.40
2007,07,09,15,20,25.10
2007,07,09,15,21,24.90
2007,07,09,15,22,24.90
2007,07,09,15,23,24.80
2007,07,09,15,24,24.90
2007,07,09,15,25,25.00
2007,07,09,15,26,25.10
2007,07,09,15,27,25.20
2007,07,09,15,28,25.10
2007,07,09,15,29,25.00
2007,07,09,15,30,24.90
2007,07,09,15,31,24.80
2007,07,09,15,32,24.80
2007,07,09,15,33,24.70
2007,07,09,15,34,24.70
2007,07,09,15,35,24.70
2007,07,09,15,36,24.90
2007,07,09,15,37,25.00
2007,07,09,15,38,25.10
2007,07,09,15,39,25.10
2007,07,09,15,40,25.20
2007,07,09,15,41,25.10
2007,07,09,15,42,25.10
2007,07,09,15,43,25.10
2007,07,09,15,44,25.10
2007,07,09,15,45,25.20
2007,07,09,15,46,25.30
2007,07,09,15,47,25.40
2007,07,09,15,48,25.40
2007,07,09,15,49,25.40
2007,07,09,15,50,25.50
2007,07,09,15,51,25.40
2007,07,09,15,52,25.40
2007,07,09,15,53,25.30
2007,07,09,15,54,25.30
2007,07,09,15,55,25.30
2007,07,09,15,56,25.30
2007,07,09,15,57,25.30
2007,07,09,15,58,25.40
2007,07,09,15,59,25.40
2007,07,09,16,00,25.50
2007,07,09,16,01,25.70
2007,07,09,16,02,25.80
2007,07,09,16,03,25.80
2007,07,09,16,04,25.80
2007,07,09,16,05,25.80
2007,07,09,16,06,25.80
2007,07,09,16,07,25.80
2007,07,09,16,08,25.70
2007,07,09,16,09,25.80
2007,07,09,16,10,25.90
2007,07,09,16,11,25.90
2007,07,09,16,12,26.00
2007,07,09,16,13,26.00
2007,07,09,16,14,25.80
2007,07,09,16,15,25.60
2007,07,09,16,16,25.50
2007,07,09,16,17,25.40
2007,07,09,16,18,25.20
2007,07,09,16,19,24.90
2007,07,09,16,20,24.80
2007,07,09,16,21,24.80
2007,07,09,16,22,24.90
2007,07,09,16,23,24.90
2007,07,09,16,24,24.80
2007,07,09,16,25,24.80
2007,07,09,16,26,24.80
2007,07,09,16,27,24.80
2007,07,09,16,28,24.80
2007,07,09,16,29,24.80
2007,07,09,16,30,24.70
2007,07,09,16,31,24.60
2007,07,09,16,32,24.70
2007,07,09,16,33,24.80
2007,07,09,16,34,24.90
2007,07,09,16,35,24.90
2007,07,09,16,36,25.00
2007,07,09,16,37,25.00
2007,07,09,16,38,25.10
2007,07,09,16,39,25.20
2007,07,09,16,40,25.20
2007,07,09,16,41,25.30
2007,07,09,16,42,25.30
2007,07,09,16,43,25.40
2007,07,09,16,44,25.50
2007,07,09,16,45,25.50
2007,07,09,16,46,25.50
2007,07,09,16,47,25.50
2007,07,09,16,48,25.50
2007,07,09,16,49,25.50
2007,07,09,16,50,25.50
2007,07,09,16,51,25.60
2007,07,09,16,52,25.60
2007,07,09,16,53,25.70
2007,07,09,16,54,25.60
2007,07,09,16,55,25.60
2007,07,09,16,56,25.60
2007,07,09,16,57,25.70
2007,07,09,16,58,25.70
2007,07,09,16,59,25.70
2007,07,09,17,00,25.70
2007,07,09,17,01,25.70
2007,07,09,17,02,25.70
2007,07,09,17,03,25.70
2007,07,09,17,04,25.70
2007,07,09,17,05,25.70
2007,07,09,17,06,25.50
2007,07,09,17,07,25.40
2007,07,09,17,08,25.40
2007,07,09,17,09,25.30
2007,07,09,17,10,25.30
2007,07,09,17,11,25.40
2007,07,09,17,12,25.50
2007,07,09,17,13,25.60
2007,07,09,17,14,25.70
2007,07,09,17,15,25.70
2007,07,09,17,16,25.60
2007,07,09,17,17,25.60
2007,07,09,17,18,25.50
2007,07,09,17,19,25.40